Location: Freistadt
(48.5112°N, 14.5013°E)
Time: 09:43:57
(UTC+02:00)

MOZHAYETS 4 - Pass Details

Date: 31 March 2023
Orbit: 657 x 675 km, 98.2° (Epoch: 03 June)

Event Time Altitude Azimuth Distance (km) Brightness Sun altitude
Exits shadow 04:19:43 26° 310° (NW) 1,304 9.0 -22.8°
Drops below altitude 10° 04:22:04 10° 331° (NNW) 2,087 10.3 -22.4°
Sets 04:24:27 0° 340° (NNW) 3,007 11.3 -22.1°
